Flag Weather past 2 weeks in La Ceiba, Honduras

Now
72 °F

Passing clouds.


Feels Like: 67 °F
Forecast: 72 / 85 °F
Wind: No wind

Location: La Ceiba Airport

Current Time: Nov 24, 2014 at 7:54:25 AM

Latest Report: Nov 24, 2014 at 7:00 AM


Visibility: N/A

Pressure: 29.83 "Hg

Humidity: 94%

Dew point: 70 °F

Location of La CeibaLocation

Historic Weather in La Ceiba — Graph

°F

La Ceiba temperature yesterday

Maximum temperature yesterday: 84 °F (at 11:00 AM)
Minimum temperature yesterday: 68 °F (at 5:00 AM)
Average temperature yesterday: 76 °F

Past Weeks' High & Low Weather Summary

 TemperatureHumidityPressure
High86 °F (Nov 17, 12:00 PM)100% (Nov 10, 1:00 AM)30.09 "Hg (Nov 10, 1:00 AM)
Low63 °F (Nov 11, 3:00 AM)62% (Nov 12, 11:00 AM)29.77 "Hg (Nov 23, 3:00 PM)
Average75 °F86%29.95 "Hg
* Reported Nov 9 6:00 AM — Nov 24 6:00 AM, La Ceiba, Weather by CustomWeather, © 2014

Note: Actual official high and low records may vary slightly from our data, if they occured in-between our weather recording intervals... More about our weather records

Advertising

La Ceiba weather history for previous 24 hours

 ConditionsComfort  
Time TempWeatherWind HumidityBarometerVisibility
6:00 AM
Nov 24
70 °FScattered clouds.2 mph100%29.83 "HgN/A
5:00 AM70 °FPassing clouds.No wind100%29.80 "HgN/A
4:00 AM70 °FPassing clouds.No wind100%29.80 "HgN/A
3:00 AM72 °FPassing clouds.2 mph94%29.80 "HgN/A
2:00 AM72 °FPassing clouds.No wind94%N/AN/A
1:00 AM72 °FPassing clouds.No wind94%29.80 "HgN/A
12:00 AM72 °FPassing clouds.No wind94%29.80 "HgN/A
11:00 PM
Nov 23
72 °FPassing clouds.No wind94%29.83 "HgN/A
10:00 PM73 °FPassing clouds.No wind94%29.83 "HgN/A
9:00 PM73 °FPassing clouds.No wind94%29.80 "HgN/A
8:00 PM73 °FPassing clouds.No wind94%29.80 "HgN/A
7:00 PM75 °FPassing clouds.2 mph94%29.80 "HgN/A
6:00 PM79 °FPassing clouds.2 mph89%29.77 "HgN/A
5:00 PM82 °FScattered clouds.5 mph79%29.77 "HgN/A
4:00 PM82 °FPassing clouds.5 mph70%29.77 "HgN/A
3:00 PM84 °FPassing clouds.6 mph74%29.77 "HgN/A
2:00 PM84 °FPassing clouds.6 mph74%29.80 "HgN/A
1:00 PM82 °FScattered clouds.6 mph79%29.83 "HgN/A
12:00 PM84 °FScattered clouds.5 mph74%29.86 "HgN/A
11:00 AM84 °FScattered clouds.3 mph74%29.89 "HgN/A
10:00 AM82 °FScattered clouds.3 mph79%29.92 "HgN/A
9:00 AM82 °FScattered clouds.2 mph70%29.92 "HgN/A
8:00 AM77 °FScattered clouds.No wind83%29.92 "HgN/A
7:00 AM72 °FPassing clouds.No wind88%29.89 "HgN/A
Weather by CustomWeather, © 2014

See weather overviewHow to use our weather pages